Regional Weather Roundup
Issued by NWS

Home | Current Version | Previous Version | Graphics & Text | Print | Product List | Glossary On
Versions: 1 2 3 4 5 6 7 8 9 10 11 12 13 14 15 16 17 18 19 20 21 22 23 24 25 26 27 28 29 30 31 32 33 34 35 36 37 38 39 40 41 42 43 44 45 46 47 48 49 50
000
ASUS43 KBIS 031310
RWRND

NORTH DAKOTA REGIONAL WEATHER ROUNDUP
NATIONAL WEATHER SERVICE BISMARCK ND
800 AM CDT SUN MAY 03 2015

NOTE: "FAIR" INDICATES FEW OR NO CLOUDS BELOW 12,000 FEET WITH NO
SIGNIFICANT WEATHER AND/OR OBSTRUCTIONS TO VISIBILITY.


NDZ001>003-009>011-017-031400-
NORTHWEST NORTH DAKOTA

CITY           SKY/WX    TMP DP  RH WIND       PRES   REMARKS
WILLISTON      MOSUNNY   43  34  70 E3        29.98R
MINOT          PTSUNNY   47  33  58 W17       29.92R
MINOT AFB      MOSUNNY   46  37  69 NW15      29.91R
$$

NDZ018>021-031>035-040>046-031400-
SOUTHWEST NORTH DAKOTA

CITY           SKY/WX    TMP DP  RH WIND       PRES   REMARKS
BISMARCK       CLOUDY    53  37  54 N8G17     29.93R
DICKINSON      CLOUDY    48  37  65 N6        29.95R
GARRISON         N/A     48  38  68 NW8       29.94R
HETTINGER ARPT CLOUDY    50  36  58 N10       29.98R
$$

NDZ004>008-012>016-024-026-027-054-031400-
NORTHEAST NORTH DAKOTA

CITY           SKY/WX    TMP DP  RH WIND       PRES   REMARKS
GRAND FORKS    CLOUDY    50  39  66 NW16      29.81R
GRND FRKS AFB  CLOUDY    51  38  62 NW14      29.82R
DEVILS LAKE    PTSUNNY   52  37  58 NW15      29.86R
$$

NDZ022-023-025-028>030-036>039-047>053-031400-
SOUTHEAST NORTH DAKOTA

CITY           SKY/WX    TMP DP  RH WIND       PRES   REMARKS
FARGO          MOSUNNY   54  43  66 N14       29.79R
JAMESTOWN      CLOUDY    54  38  54 N23G31    29.86R
$$



USA.gov is the U.S. government's official web portal to all federal, state and local government web resources and services.